Hoquiam, WA

11:57 AM PDT on June 22, 2017 (GMT -0700)
Bowerman

Weather History for KHQM - July, 2013

Change the Weather History Date:

Saturday, July 20, 2013

  Actual Average Record
Temperature  
Mean Temperature 60 °F 60 °F  
Max Temperature 65 °F 67 °F 83 °F (1990)
Min Temperature 54 °F 54 °F 45 °F (1977)
Degree Days  
Heating Degree Days 5 5  
Month to date heating degree days 80 108  
Since 1 June heating degree days 255 354  
Cooling Degree Days 0 0  
Month to date cooling degree days 0 0  
Year to date cooling degree days 11 3  
Since 1 June cooling degree days 8 2  
Growing Degree Days 8 (Base 50)    
Moisture  
Dew Point 53 °F    
Average Humidity 83    
Maximum Humidity 93    
Minimum Humidity 72    
Precipitation  
Precipitation 0.00 in 0.03 in 0.83 in (1992)
Month to date precipitation T 0.82  
Year to date precipitation 32.56 35.98  
Sea Level Pressure  
Sea Level Pressure 30.09 in    
Wind  
Wind Speed 10 mph (West)    
Max Wind Speed 18 mph    
Max Gust Speed 23 mph    
Visibility 10 miles    
Events      
T = Trace of Precipitation, MM = Missing Value Source: NWS Daily Summary

Daily Weather History Graph

Daily Weather History Graph

Search for Another Location

Airport or City:

Trip Planner

Search our weather history database for the weather conditions in past years. The results will help you decide how hot, cold, wet, or windy it might be!

Date:

Astronomy

Jul. 20, 2013 Rise Set
Actual Time 5:41 AM PDT 9:02 PM PDT
Civil Twilight 5:04 AM PDT 9:39 PM PDT
Nautical Twilight 4:15 AM PDT 10:27 PM PDT
Astronomical Twilight 3:12 AM PDT 11:29 PM PDT
Moon 7:09 PM PDT (7/20) 3:27 AM PDT (7/20)
Length of Visible Light 16h 34m
Length of Day
15h 20m
Waxing Gibbous, 94% of the Moon is Illuminated
Jul 20
Waxing Gibbous
Jul 22
Full
Jul 29
Last Quarter
Aug 6
New
Aug 14
First Quarter

Hourly Weather History & Observations

Time (PDT) Temp. Dew Point Humidity Pressure Visibility Wind Dir Wind Speed Gust Speed Precip Events Conditions
12:53 AM 55.9 °F 52.0 °F 87% 30.13 in 10.0 mi WNW 5.8 mph - N/A   Overcast
1:53 AM 55.0 °F 52.0 °F 89% 30.13 in 10.0 mi NW 6.9 mph - N/A   Overcast
2:53 AM 55.0 °F 52.0 °F 89% 30.12 in 10.0 mi West 6.9 mph - N/A   Overcast
3:53 AM 54.0 °F 52.0 °F 93% 30.12 in 10.0 mi WNW 5.8 mph - N/A   Overcast
4:53 AM 54.0 °F 52.0 °F 93% 30.12 in 10.0 mi West 9.2 mph - N/A   Overcast
5:53 AM 55.0 °F 52.0 °F 89% 30.12 in 10.0 mi WNW 6.9 mph - N/A   Overcast
6:53 AM 54.0 °F 52.0 °F 93% 30.12 in 7.0 mi West 6.9 mph - N/A   Overcast
7:53 AM 55.0 °F 52.0 °F 89% 30.13 in 10.0 mi NW 4.6 mph - N/A   Overcast
8:53 AM 55.0 °F 52.0 °F 89% 30.13 in 10.0 mi West 5.8 mph - N/A   Overcast
9:53 AM 55.9 °F 52.0 °F 87% 30.14 in 10.0 mi West 5.8 mph - N/A   Overcast
10:53 AM 57.0 °F 53.1 °F 87% 30.13 in 10.0 mi WSW 8.1 mph - N/A   Overcast
11:53 AM 57.9 °F 53.1 °F 84% 30.13 in 10.0 mi WSW 6.9 mph - N/A   Overcast
12:02 PM 59.0 °F 53.6 °F 82% 30.11 in 10.0 mi West 4.6 mph - N/A   Overcast
12:53 PM 61.0 °F 54.0 °F 78% 30.12 in 10.0 mi Variable 6.9 mph - N/A   Overcast
1:10 PM 60.8 °F 53.6 °F 77% 30.11 in 10.0 mi West 11.5 mph 18.4 mph N/A   Overcast
1:53 PM 62.1 °F 53.1 °F 72% 30.11 in 10.0 mi WSW 11.5 mph - N/A   Overcast
2:53 PM 63.0 °F 54.0 °F 72% 30.10 in 10.0 mi WSW 15.0 mph - N/A   Partly Cloudy
3:53 PM 63.0 °F 55.0 °F 75% 30.09 in 10.0 mi WSW 15.0 mph 21.9 mph N/A   Clear
4:53 PM 63.0 °F 55.0 °F 75% 30.08 in 10.0 mi West 13.8 mph 19.6 mph N/A   Partly Cloudy
5:29 PM 60.8 °F 53.6 °F 77% 30.06 in 10.0 mi West 12.7 mph 20.7 mph N/A   Mostly Cloudy
5:53 PM 60.1 °F 54.0 °F 80% 30.06 in 10.0 mi West 15.0 mph 20.7 mph N/A   Overcast
6:02 PM 60.8 °F 53.6 °F 77% 30.05 in 10.0 mi West 13.8 mph - N/A   Overcast
6:53 PM 59.0 °F 53.1 °F 81% 30.05 in 10.0 mi West 11.5 mph - N/A   Mostly Cloudy
7:06 PM 59.0 °F 53.6 °F 82% 30.04 in 10.0 mi West 9.2 mph - N/A   Scattered Clouds
7:21 PM 59.0 °F 53.6 °F 82% 30.04 in 10.0 mi WSW 10.4 mph - N/A   Mostly Cloudy
7:53 PM 57.0 °F 53.1 °F 87% 30.05 in 10.0 mi West 15.0 mph 19.6 mph N/A   Overcast
8:41 PM 55.4 °F 53.6 °F 94% 30.04 in 10.0 mi West 11.5 mph - N/A   Overcast
8:53 PM 55.9 °F 53.1 °F 90% 30.05 in 10.0 mi West 11.5 mph 19.6 mph N/A   Overcast
9:53 PM 55.9 °F 53.1 °F 90% 30.05 in 10.0 mi WNW 10.4 mph - N/A   Overcast
10:53 PM 55.9 °F 53.1 °F 90% 30.04 in 10.0 mi West 6.9 mph - N/A   Overcast
11:53 PM 55.9 °F 53.1 °F 90% 30.04 in 10.0 mi West 9.2 mph - N/A   Overcast